Powrót do katalogu

SENTINEL 1C

AktywnyNaukaSSO
NORAD 62261·PAYLOAD·🇪🇺 EU

Wystrzelony Dec 5, 2024 z Guiana Space Centre

Loading…

Następne Przeloty (najbliższe 24 godziny)

TLE

ŚwieżeSource: Space-Track

Epoka: Sep 14, 2026, 14:50 UTC

1 62261U 24235A   26257.61834089 -.00000158  00000-0 -23720-4 0  9998
2 62261  98.1822 263.6593 0001285  89.9964 270.1383 14.59198020 94459

Śledź SENTINEL 1C w czasie rzeczywistym z AllMySat

Download on the App Store